SKYSAT-C5

Last updated on Fri Oct 04 2024 00:02:25 GMT+0000 (Coordinated Universal Time)

1 41772U 16058C 24277.11436570 .00044927 00000+0 12059-2 0 9994 2 41772 97.1450 329.2351 0002267 59.9987 300.1483 15.37808063448251
UTC large
Height (km)
Speed (km/s)
/
Latitude / Longitude
Inclination (degrees)
Orbital Period (minutes)
Azimuth
Elevation
Range (km)
Doppler Factor

Next 0 passes for location: London (51.5072 / 0.1276)

Sorry there are no passes over London.